Find Kosmos-2251

NORAD ID: 22675 Int'l Des: 1993-036 Owner: VKS Country: RU operational
LEOCIRCULAR

リアルタイム位置

3D地球を読み込み中...

Kosmos-2251について

説明を読み込み中...

次回通過

Passes for default location (London). Set your location on the main map for personalized predictions.

高度履歴

Loading altitude history...

軌道要素

1 22675U 93036A 26107.10702644 .00000028 00000-0 19699-4 0 9991
2 22675 74.0376 86.8176 0024078 143.3416 216.9389 14.33243676715695
Epoch: Apr 17, 2026 • Age: 15 hours

現在のステータス

高度 811.0 km
速度 7.44 km/s
衛星直下点 -65.44°S, 158.66°W
打ち上げ日 Jun 16, 1993
運用期間 32.8 years
タイプ other

技術仕様

分類 Payload
質量 800.00 kg
乾燥質量 800.00 kg
総質量 800.00 kg
長さ 3.00 m
直径 2.00 m
スパン 3.00 m
形状 Cyl
製造者 NPOPM
バスタイプ Strela-2M
フェーズステータス Collided
所有者/国 VKS/RU

Most Searched